Tracking 29892 objects as of 21-Nov-2024
HD Live streaming from Space Station
objects crossing your sky now

OBJECT W

Track OBJECT W now!
10-day predictions


NORAD ID: 57024
Int'l Code: 2023-085W
Perigee: 475.0 km
Apogee: 486.0 km
Inclination: 97.5 °
Period: 94.1 minutes
Semi major axis: 6851 km
RCS: Unknown
Launch date: June 15, 2023
Source: People's Republic of China (PRC)
Launch site: Taiyaun Space Center, China (TSC)
Your satellite tracking list
Your tracking list is empty




NASA's NSSDC Master Catalog

Two Line Element Set (TLE):
1 57024U 23085W   24325.90418750  .00040481  00000-0  13544-2 0  9992
2 57024  97.4745  69.4171 0008045 265.8463  94.1859 15.30828872 79494
Source of the keplerian elements: AFSPC